Wind_Speed
65 68 70 70 69 69 68 66 65 65 65 65 65 64 62 60 58 56 56 56 55 55 55 56 56 57 57 58 59 59 59 58 58 58 57 56 55 55 54 54 54 55 56 58 59 61 61 61 61 61 61 62 62 62 61 61 60 60 60 61 62 62 63 64 65 66 67 67 67 67 66 66 65 65 65 65 67 68 68 68 66 65 65 65 65
65 68 69 68 68 68 69 69 69 68 67 66 65 64 63 61 59 58 58 58 57 57 58 59 59 60 60 60 61 61 61 61 61 60 58 57 56 56 56 56 55 56 56 57 60 62 63 64 64 64 64 64 64 64 64 63 63 63 63 63 64 64 65 66 67 68 69 69 69 69 69 68 67 67 67 68 69 69 69 68 66 64 63 63 63
66 66 66 65 65 64 65 68 70 70 69 67 65 63 61 60 60 60 61 61 61 61 60 61 62 62 63 62 62 62 62 62 62 61 60 59 58 58 58 58 58 58 58 58 60 62 64 65 66 66 67 67 67 66 66 65 66 66 67 67 68 68 69 69 70 71 71 71 71 71 71 70 69 68 68 68 68 68 67 66 63 61 60 60 60
66 67 66 64 63 62 62 65 70 72 72 70 67 64 62 61 61 62 63 63 63 63 63 63 64 64 64 63 63 63 63 64 64 63 62 61 61 61 61 61 60 60 60 61 61 63 65 67 67 68 69 69 69 68 68 69 69 70 71 71 71 72 72 72 73 73 72 72 71 71 70 69 69 68 67 67 66 65 64 62 61 60 59 58 57
65 66 66 64 63 61 60 63 69 72 74 73 71 68 66 64 64 65 65 65 65 65 65 66 66 66 66 65 65 65 65 65 66 66 64 64 63 63 62 62 62 62 62 62 63 65 67 68 69 70 71 71 71 71 71 72 72 73 73 73 73 73 73 73 73 72 71 70 69 69 68 68 67 66 65 64 63 62 61 61 61 59 57 56 55
67 68 67 66 65 63 62 63 66 70 73 74 75 73 70 67 67 68 68 68 67 66 66 65 65 65 65 65 64 64 64 65 66 66 65 65 65 64 63 63 63 64 64 65 65 66 68 69 70 71 72 72 73 73 73 74 74 74 73 73 72 71 71 71 71 70 68 67 67 67 66 66 65 63 63 62 61 61 61 60 59 57 55 54 53
67 69 70 69 68 67 67 67 67 68 70 73 75 75 73 71 70 71 72 71 68 66 64 62 60 59 60 60 60 61 62 64 66 66 67 67 66 65 64 64 65 65 66 67 67 68 69 70 71 71 72 73 73 74 74 74 74 73 72 71 70 69 69 70 69 68 66 65 65 65 64 63 62 61 61 61 61 60 59 57 55 53 53 53 53
68 69 71 72 72 71 72 73 73 72 72 73 74 75 74 73 72 72 73 72 69 65 61 59 58 58 59 61 62 62 64 65 67 68 69 69 68 66 66 66 66 67 68 69 70 70 70 71 71 71 72 72 73 73 74 73 73 71 70 69 68 68 69 69 68 67 65 64 64 63 62 61 61 61 60 60 59 57 55 53 51 51 52 53 54
78 78 78 79 79 78 77 77 77 76 75 74 73 73 74 74 74 73 72 70 67 64 61 59 60 61 62 64 66 66 65 66 67 69 70 70 69 68 68 68 68 69 70 71 72 72 72 72 71 71 71 72 72 72 72 72 71 69 68 67 67 68 69 69 68 66 64 63 63 62 61 61 60 60 59 57 56 54 52 51 49 50 51 52 54
85 85 84 84 85 84 83 82 81 79 77 75 74 75 75 76 76 75 74 71 68 64 63 62 63 65 66 67 69 68 67 67 68 69 70 70 71 71 70 70 71 71 72 73 73 74 74 74 73 73 73 73 72 71 70 69 68 67 67 67 68 69 70 69 67 64 62 62 62 62 61 60 60 58 57 55 54 52 51 50 50 50 51 52 54
83 83 83 84 84 84 83 82 82 81 79 76 74 75 77 78 78 77 76 74 71 68 68 69 70 70 70 70 71 70 69 69 69 70 71 71 72 72 72 72 73 73 74 74 75 75 76 76 75 74 73 73 71 69 68 67 67 67 68 69 70 70 69 67 64 62 62 61 61 62 61 60 59 57 55 54 52 52 52 52 52 53 54 55 56
79 79 80 80 80 80 80 79 79 80 80 78 76 77 79 79 79 78 77 77 77 77 79 79 77 74 73 74 74 72 70 70 70 71 72 73 74 74 74 74 74 75 75 75 75 76 76 76 75 73 71 69 68 67 66 67 68 69 70 71 71 70 67 65 62 61 61 61 61 62 61 59 57 55 53 52 52 52 53 54 55 55 56 57 58
78 78 78 79 79 78 78 77 77 78 78 78 77 78 79 80 80 80 81 82 84 84 84 83 80 77 76 78 77 74 73 73 74 75 75 75 76 76 75 75 75 75 75 75 75 75 74 73 71 68 67 66 66 66 67 68 70 72 73 72 70 68 66 63 61 61 61 62 62 61 59 56 53 52 52 52 52 53 54 56 57 58 58 59 61
78 78 78 78 79 78 79 78 78 78 78 79 79 80 81 82 82 82 82 83 83 81 80 80 79 78 78 79 79 77 76 76 77 77 77 77 77 76 76 75 75 75 75 74 72 70 69 68 66 64 64 64 65 67 69 72 74 74 72 70 69 67 65 62 61 61 62 62 60 58 55 52 51 51 52 53 54 55 57 59 61 63 65 67 69
82 81 80 79 78 78 78 78 78 78 78 78 79 79 80 80 80 80 79 79 78 78 79 79 79 78 78 79 79 79 79 80 80 79 80 79 79 78 77 77 77 77 76 73 70 67 66 66 64 62 63 66 68 71 73 75 74 72 70 69 69 66 63 62 61 62 62 61 58 56 53 52 52 52 54 57 59 61 64 67 70 74 76 77 77
86 87 87 86 84 82 79 78 78 78 78 78 78 78 79 79 79 80 80 80 81 82 82 80 78 78 79 80 81 81 82 82 82 81 81 81 80 80 79 79 77 75 73 69 67 66 66 65 64 64 66 68 70 72 74 74 72 71 70 70 68 65 63 63 62 62 61 60 58 57 57 57 57 57 60 63 66 68 72 74 78 80 81 81 81
91 93 93 93 92 90 87 84 82 81 81 81 81 80 81 81 82 84 86 87 87 86 84 80 77 78 81 83 84 84 85 84 84 84 82 81 81 80 78 75 72 68 66 64 63 64 65 65 66 67 67 67 68 71 72 72 71 71 72 71 67 65 64 64 63 62 61 60 60 61 61 62 62 64 67 69 72 75 77 77 78 80 81 82 83
101 100 99 97 95 93 91 90 89 89 89 90 89 86 84 85 86 88 88 87 86 84 84 81 78 78 80 84 86 86 85 85 86 85 82 81 81 78 72 68 66 64 63 63 63 65 66 66 68 69 68 69 71 73 71 70 70 72 72 69 66 65 65 65 64 62 62 62 63 65 66 67 68 70 72 74 75 76 76 76 77 80 82 84 84
98 98 99 99 97 96 96 96 95 92 90 90 89 86 83 82 83 83 82 81 80 81 82 82 81 81 83 85 87 88 87 88 88 85 82 82 80 76 71 68 65 63 62 62 63 64 65 66 68 70 71 72 73 72 69 69 72 73 71 68 66 66 67 66 64 64 64 65 67 69 71 72 73 74 74 75 74 74 75 76 78 81 83 84 84
87 89 91 93 95 96 96 94 89 81 76 74 74 74 74 74 74 75 75 75 76 77 78 79 81 85 87 87 86 87 87 86 85 81 79 77 75 72 69 68 65 64 64 65 65 66 68 68 69 70 71 71 70 69 69 73 76 74 70 67 67 68 68 67 66 66 66 68 70 72 74 75 75 75 74 73 72 73 74 77 79 80 82 82 82
82 83 83 85 86 85 84 83 79 74 71 71 72 72 73 73 73 73 72 72 73 74 74 74 77 81 83 81 79 78 76 75 74 73 73 74 73 70 68 66 66 66 67 68 68 69 69 70 71 73 72 70 69 71 75 78 78 74 70 69 70 70 69 68 68 68 68 69 71 72 73 74 74 73 72 71 71 72 74 76 78 79 80 80 82
85 84 83 83 83 82 81 80 78 77 76 76 77 77 77 77 75 74 73 72 72 71 71 71 72 74 74 73 70 68 67 68 70 71 73 74 72 69 65 65 66 68 67 65 65 67 69 70 72 73 72 71 72 75 80 80 77 73 72 72 71 71 70 70 70 70 70 69 70 71 72 72 71 71 71 70 71 73 74 75 76 77 79 80 82
92 90 89 88 87 87 86 86 85 83 82 82 83 83 82 80 78 77 77 75 74 73 73 72 71 70 69 67 66 67 68 69 70 71 71 71 70 66 63 64 66 66 65 63 63 65 67 70 73 74 73 73 76 79 81 79 76 74 75 74 73 72 71 72 72 72 70 70 70 70 70 70 70 71 71 71 71 72 72 74 75 77 79 81 83
101 99 97 96 95 94 93 92 92 90 90 89 89 88 86 82 79 79 80 80 80 82 82 81 77 73 70 68 66 66 67 67 67 67 67 66 67 66 63 63 66 66 64 63 63 63 66 70 74 75 75 77 79 80 80 80 78 77 76 74 72 72 72 73 74 73 72 70 69 68 68 69 70 71 71 71 71 71 72 74 76 78 80 81 83
111 109 106 104 103 102 100 98 97 96 94 93 91 90 87 83 81 82 82 80 81 83 85 84 80 75 71 68 65 64 65 65 64 64 65 65 67 68 65 65 66 67 65 64 64 64 66 70 74 76 77 79 81 80 80 79 77 74 72 71 71 72 73 74 73 72 70 69 67 68 70 72 72 73 73 72 71 71 72 75 77 79 80 81 82
113 113 113 112 110 108 106 102 100 97 94 92 89 87 86 84 82 80 78 75 75 75 77 77 77 75 73 71 69 68 69 69 67 67 68 69 71 72 71 69 69 70 70 69 68 68 68 71 75 77 78 79 80 79 76 73 71 70 70 71 73 74 74 73 71 70 68 68 69 71 73 74 74 74 73 72 71 72 74 76 78 80 81 82 81
107 109 111 112 113 112 108 103 99 96 93 90 87 85 85 84 80 75 73 73 74 74 74 73 74 75 75 74 73 72 71 71 70 71 73 73 73 75 75 72 72 73 75 75 76 76 75 75 76 77 77 76 74 72 70 69 71 72 72 73 74 74 74 72 70 69 69 70 72 74 75 74 74 74 74 73 72 74 76 78 79 80 81 81 81
102 103 104 106 108 109 107 104 100 97 94 91 88 85 83 80 76 73 73 76 79 80 78 75 74 75 75 74 73 73 72 71 70 72 74 75 75 76 75 73 73 75 77 79 81 81 79 78 77 76 73 70 67 66 67 69 71 71 71 71 71 71 70 69 68 69 70 72 74 75 75 75 75 75 75 74 74 75 77 79 80 80 80 80 80
99 100 101 102 103 105 105 104 103 101 99 96 92 87 82 78 77 77 77 78 81 83 81 77 75 74 74 74 73 72 71 69 69 71 73 74 74 74 74 74 75 77 79 80 81 80 77 77 77 75 73 71 70 69 69 70 70 68 67 67 66 66 66 67 68 70 72 74 76 76 76 76 77 76 75 75 75 77 78 79 79 79 79 79 78
95 97 99 100 102 104 105 105 104 105 104 101 95 92 89 86 85 84 82 81 82 83 82 79 76 75 75 75 75 74 71 69 68 69 70 71 72 73 74 75 77 79 80 80 80 77 74 74 75 74 73 73 73 72 71 70 67 65 63 63 63 65 67 69 71 73 75 77 77 77 77 77 77 76 76 76 77 78 78 78 78 77 77 77 76
92 93 94 97 99 102 105 107 107 107 107 104 100 98 97 97 95 92 87 85 84 84 82 79 77 76 76 76 77 76 74 70 69 69 69 71 74 76 77 77 78 79 79 78 76 73 71 72 73 73 71 67 63 62 63 63 63 62 63 64 66 68 70 72 74 76 77 78 77 77 77 77 76 76 77 78 77 77 76 76 76 75 75 75 75
90 90 90 92 95 98 101 104 106 108 108 108 106 105 105 104 102 98 93 89 86 84 82 80 78 77 77 77 78 79 76 72 70 70 72 75 77 77 76 75 73 74 74 74 71 67 65 67 69 71 71 68 63 60 59 61 63 65 67 69 70 72 73 75 76 77 78 77 77 77 77 76 76 77 78 78 76 75 74 74 74 73 73 73 72
88 88 87 88 90 93 95 98 102 105 107 109 110 111 111 111 109 105 99 94 90 87 85 82 80 79 78 78 80 81 79 76 73 72 76 79 78 75 72 69 66 65 64 64 63 60 58 59 62 66 69 69 68 66 65 65 68 70 71 72 73 74 75 76 77 78 78 78 77 76 76 76 76 77 78 76 74 72 72 72 72 71 71 70 70
86 86 85 85 86 88 89 91 94 99 103 106 108 111 112 113 113 112 107 101 97 95 94 91 87 83 80 80 83 83 82 80 76 76 80 83 81 77 73 69 65 61 59 57 57 57 57 58 61 63 65 67 68 69 69 71 73 74 74 74 75 75 75 76 77 78 78 77 76 75 75 76 78 77 76 74 72 70 69 69 70 69 69 69 69
82 82 81 81 83 83 83 84 86 89 93 98 101 105 107 109 111 114 113 109 104 101 100 98 94 89 85 84 86 87 86 84 81 81 84 86 85 82 80 76 70 66 63 61 61 63 65 67 69 70 72 73 74 75 75 76 76 76 77 77 76 76 76 76 76 76 75 75 75 75 76 77 77 76 73 71 69 68 67 67 68 68 68 68 68
73 74 74 75 77 78 78 78 79 80 82 85 89 93 96 99 102 106 110 111 108 104 102 101 100 97 93 90 90 91 90 87 85 86 87 88 87 87 85 81 78 74 72 70 70 71 73 75 76 78 80 81 81 81 80 80 80 79 79 78 77 76 76 75 74 73 73 73 74 76 76 76 75 73 70 68 67 66 66 66 66 66 66 67 68
62 63 64 66 68 70 71 72 73 74 75 76 77 80 83 86 90 94 98 101 103 102 101 101 102 101 99 96 95 95 93 89 87 87 88 87 88 88 87 85 83 80 77 75 75 77 79 80 81 82 83 84 84 84 83 82 81 80 79 78 76 75 74 72 72 72 73 74 75 75 75 73 72 70 67 65 65 64 64 64 64 64 65 67 68
54 55 56 57 59 61 62 64 65 67 68 69 71 72 74 75 78 81 84 88 91 93 95 97 98 97 97 97 97 98 96 92 89 88 88 89 90 90 89 87 86 84 81 80 80 81 82 83 84 85 86 87 87 86 85 83 82 80 77 76 74 72 71 71 71 72 73 74 73 72 71 69 67 66 64 63 63 63 62 62 62 63 65 66 68
49 49 51 52 53 54 55 56 58 59 61 63 64 66 67 67 68 69 72 74 78 82 85 89 92 92 93 95 97 98 97 94 90 88 89 91 93 93 92 89 87 86 85 84 83 83 83 83 84 84 85 86 86 85 84 83 81 79 76 73 71 70 70 71 71 71 71 70 69 68 66 64 63 62 61 61 61 60 60 61 62 64 65 66 67
45 45 45 46 47 48 49 50 51 52 54 56 57 58 60 60 60 62 63 64 67 70 73 78 83 87 90 91 93 93 94 93 91 90 91 93 95 96 96 93 90 88 86 84 83 82 81 80 80 80 80 81 81 81 81 81 79 75 71 69 69 69 69 69 69 68 67 65 64 63 61 60 60 60 60 60 59 59 60 61 63 65 66 67 68
41 41 40 40 41 42 43 43 44 44 45 46 48 49 51 52 53 55 55 56 57 58 61 64 70 76 82 86 87 87 88 89 89 90 91 93 94 96 96 94 90 88 86 84 82 80 77 75 74 73 74 75 76 76 76 75 72 68 66 65 65 65 65 65 64 62 61 60 59 58 57 57 58 58 58 58 57 58 60 62 63 65 67 68 69
36 36 35 35 35 35 35 34 35 35 36 36 37 39 40 43 45 46 47 48 49 50 51 53 57 62 69 74 78 81 83 85 86 87 87 87 87 87 88 87 86 84 82 80 78 75 73 71 69 68 68 68 69 69 68 66 64 62 62 62 62 61 60 59 58 57 56 55 55 55 55 55 56 56 56 56 57 59 61 63 64 66 68 68 70
30 31 30 30 29 28 26 25 24 25 25 26 27 29 31 33 35 37 38 39 40 41 43 44 47 50 54 58 64 69 73 75 76 75 74 74 74 75 76 77 76 75 73 71 69 67 66 65 64 64 63 62 61 60 59 58 58 58 58 58 57 57 56 55 54 53 52 52 52 52 53 53 54 54 55 56 58 60 62 63 65 66 68 69 71
25 25 25 24 21 18 16 14 14 14 14 15 16 18 20 22 24 26 27 29 31 32 34 35 37 39 41 44 48 52 55 56 57 58 58 60 62 64 65 65 65 64 62 60 59 58 57 57 57 56 55 54 53 52 52 52 53 53 54 53 53 52 52 51 50 49 49 49 50 50 51 51 52 53 55 57 59 61 62 64 66 67 69 70 72
21 21 20 17 13 9 9 10 9 9 10 10 10 11 12 14 16 18 19 21 23 25 26 27 29 30 32 34 36 37 39 41 43 44 45 48 50 52 53 53 52 51 49 48 48 48 49 48 47 46 45 45 45 45 46 47 48 49 50 50 50 49 48 47 47 47 47 47 48 48 49 50 52 54 56 58 60 62 63 65 67 69 70 72 73
19 19 17 12 10 10 9 10 9 8 8 9 9 9 11 12 13 15 16 18 19 20 21 22 23 24 25 26 27 28 30 32 33 34 36 38 40 41 41 41 39 37 36 36 38 40 41 41 41 41 42 44 45 46 46 46 47 47 47 46 46 45 44 44 45 45 45 46 46 47 49 51 53 55 57 59 61 63 65 66 68 70 72 73 75
16 17 15 10 11 13 12 10 9 7 7 7 8 9 10 12 13 14 15 15 16 17 18 19 21 22 23 24 24 25 26 27 28 28 29 30 30 31 31 30 29 28 28 29 31 34 36 38 39 40 41 43 44 46 46 45 44 44 43 42 42 42 42 43 43 44 44 45 46 48 50 52 54 56 58 60 62 64 66 68 70 71 73 75 77
13 13 13 10 11 13 13 11 10 9 8 8 9 10 11 13 13 14 14 15 16 17 18 19 19 20 22 23 24 24 24 24 23 22 21 21 22 23 24 25 26 27 29 30 31 32 33 36 37 39 39 39 40 40 41 40 39 39 39 39 39 40 41 41 42 43 44 45 47 49 51 53 55 57 59 61 64 65 67 69 71 73 75 77 80
11 11 10 9 10 13 13 12 11 11 10 10 11 12 12 13 14 14 15 16 18 18 18 19 20 20 21 22 23 22 21 20 20 20 20 22 23 24 25 27 28 30 31 32 33 33 34 35 36 37 38 37 36 36 35 35 35 36 36 37 38 39 40 41 42 44 45 46 48 50 52 54 56 59 61 63 65 67 69 71 73 75 78 80 82
10 9 8 7 6 9 11 13 13 13 12 13 13 14 15 15 15 15 16 17 18 18 18 20 21 22 22 22 22 22 22 22 23 24 26 27 29 29 30 30 31 31 31 32 33 34 35 35 35 35 35 34 32 32 32 32 33 34 35 36 37 38 40 41 43 44 46 47 49 51 53 56 58 60 62 65 67 69 71 73 76 78 80 81 82
10 8 7 6 4 5 8 11 13 14 15 16 17 18 18 18 17 15 15 16 17 17 18 19 19 19 20 20 21 23 25 27 28 29 30 30 31 32 32 32 33 33 33 34 34 35 34 34 33 32 31 30 29 29 30 31 32 33 35 36 37 39 40 42 44 45 47 48 50 53 55 58 60 62 64 67 69 71 73 75 77 79 80 79 78
Wind_Direction
261 261 261 262 262 262 263 264 265 265 266 266 267 266 265 264 265 265 265 265 265 266 266 266 266 267 267 267 267 269 270 271 271 273 274 276 278 280 281 281 281 280 280 280 280 280 279 277 276 274 274 273 273 274 274 274 274 273 274 275 277 278 280 281 283 285 287 287 288 289 290 290 290 290 291 292 292 292 291 291 291 291 289 287 286
258 258 259 259 260 260 261 263 264 264 263 263 262 262 262 262 262 263 264 265 266 266 267 267 267 268 268 268 268 269 270 271 272 273 274 275 277 278 278 278 278 277 277 277 277 277 277 276 274 273 273 273 273 274 274 274 274 274 274 275 276 277 279 280 282 284 286 288 288 289 289 288 288 288 289 290 290 290 290 290 290 289 287 285 285
262 262 262 262 262 262 262 264 264 264 263 261 259 258 258 259 260 261 263 264 265 266 267 268 268 269 269 269 270 271 271 271 272 272 273 274 275 276 276 277 276 276 276 275 275 274 274 273 272 272 272 272 272 272 273 273 273 273 274 275 276 277 278 279 281 283 285 287 287 287 287 286 286 287 287 287 287 288 288 288 287 286 285 284 284
268 269 268 267 265 263 262 261 262 263 263 261 258 257 256 256 258 260 261 263 264 266 267 268 269 270 270 270 271 271 271 271 271 271 271 272 273 274 275 276 276 276 276 275 274 273 272 271 270 270 270 271 271 271 271 271 272 273 274 275 276 277 278 279 280 281 283 284 285 285 285 285 286 286 286 286 286 285 285 284 283 282 282 283 284
266 268 269 268 265 263 261 260 259 260 261 261 259 257 256 256 257 259 260 262 263 264 266 267 268 268 269 269 270 270 270 270 270 270 269 270 272 273 274 275 275 275 275 274 273 272 271 270 269 268 269 269 270 270 271 271 271 272 272 273 275 276 277 278 279 280 281 282 284 285 285 285 285 285 284 284 283 281 281 280 280 280 280 280 281
258 261 263 265 265 262 260 259 258 259 260 261 260 259 258 259 260 261 262 263 263 264 265 266 267 268 269 269 269 268 268 268 268 268 268 269 271 272 273 275 275 274 274 273 272 271 270 269 268 268 268 268 269 269 270 270 270 271 272 273 274 276 277 278 279 280 281 282 284 284 284 283 283 283 282 281 280 279 279 279 279 278 277 277 277
257 259 260 261 263 263 261 260 259 259 260 261 261 261 261 262 262 263 263 263 264 264 265 265 267 269 270 269 269 268 269 269 269 269 269 270 270 270 272 273 274 274 274 274 273 271 270 270 269 268 268 268 268 269 269 270 270 271 272 273 275 276 278 279 279 280 281 282 283 282 281 281 280 280 280 279 279 280 279 279 277 275 275 275 276
260 261 262 263 263 264 264 263 262 261 261 261 261 261 262 262 262 261 260 260 260 260 260 262 265 268 269 270 271 271 270 270 270 270 270 270 269 269 270 271 272 273 273 273 272 271 270 269 268 268 268 268 269 269 270 270 271 272 274 275 276 277 278 278 278 278 280 281 281 279 278 277 277 278 278 278 280 280 279 277 276 275 275 276 277
264 263 264 266 266 266 266 265 265 264 264 263 263 262 262 261 260 258 257 256 255 255 256 260 264 267 269 271 272 272 272 271 270 270 269 269 269 269 269 270 271 271 271 272 271 270 269 268 267 267 268 269 269 269 270 271 272 273 275 276 277 278 278 277 276 276 277 278 277 276 276 276 276 276 276 277 279 279 277 276 276 275 275 276 276
269 268 268 268 269 269 270 269 268 267 267 266 266 265 263 261 258 257 256 255 255 256 258 263 267 269 270 271 272 271 271 270 269 268 268 268 268 268 268 269 269 269 270 270 270 269 268 267 267 267 268 268 269 269 270 272 273 274 275 276 277 277 276 275 274 274 275 275 274 274 274 274 274 273 274 275 277 277 275 274 274 274 273 274 275
268 269 270 270 270 270 271 271 270 270 269 268 266 263 261 260 258 258 258 258 259 261 264 268 271 272 272 271 271 270 269 269 267 265 265 265 265 266 266 267 268 268 268 269 269 269 269 268 267 267 267 268 269 270 271 273 274 275 275 275 275 275 274 272 271 272 272 272 273 273 273 272 271 272 273 275 275 275 275 275 275 275 276 276 278
263 264 265 266 267 267 268 268 267 268 268 268 265 262 260 259 259 259 259 260 262 265 268 270 272 273 273 272 271 269 269 268 266 263 263 263 263 264 265 265 266 267 268 269 269 269 269 267 266 266 267 268 270 272 273 274 275 275 275 274 274 273 272 271 270 270 270 271 272 272 271 271 271 272 273 274 274 275 276 277 277 278 279 279 280
259 258 259 260 260 261 261 261 261 262 262 262 262 261 260 259 259 260 260 261 263 265 267 269 271 272 272 271 270 268 267 267 265 263 263 263 264 265 265 266 267 268 269 269 270 269 268 266 266 267 269 271 272 274 275 275 274 274 273 273 272 271 270 269 269 268 270 271 272 271 270 271 271 272 273 274 274 275 276 277 278 279 280 281 283
256 256 256 256 256 256 256 256 256 256 256 256 257 257 258 259 259 260 260 262 263 264 267 270 271 270 269 268 268 267 266 266 266 266 266 265 265 266 266 267 268 269 269 269 269 269 268 268 268 270 271 272 274 275 275 274 273 272 272 272 271 270 269 268 267 268 269 270 270 270 269 270 270 271 272 273 274 276 277 278 279 281 283 285 287
257 257 257 256 255 255 254 255 255 255 255 255 256 257 258 259 260 261 262 263 265 267 270 271 270 267 265 265 266 266 266 266 267 267 267 266 266 266 267 267 268 268 268 268 268 269 269 269 270 271 272 273 273 273 272 271 271 271 271 270 270 269 268 266 266 267 268 269 268 267 267 266 267 269 272 275 276 278 280 282 283 285 287 288 290
260 260 261 260 257 256 255 256 257 258 258 258 258 259 260 261 262 263 264 266 269 271 271 269 266 264 264 264 264 264 264 265 265 266 266 266 266 266 266 267 267 267 268 269 270 270 270 269 270 271 272 272 272 272 272 272 272 271 270 269 269 268 266 265 266 266 267 266 265 264 264 264 266 269 273 276 278 280 283 285 287 288 289 291 293
262 263 264 264 261 258 257 257 259 261 263 263 263 263 263 264 265 266 268 269 270 270 268 265 263 262 263 264 264 263 263 264 264 264 264 264 264 264 265 266 267 268 270 271 271 271 270 270 271 273 272 271 271 271 271 271 270 269 268 267 267 266 264 264 265 265 264 264 264 264 264 265 267 271 274 277 280 282 285 286 288 290 291 293 294
264 264 263 263 262 261 259 259 260 262 264 266 267 267 267 268 268 268 269 268 267 266 264 262 261 261 262 262 262 262 263 264 264 263 263 264 263 263 264 266 269 272 274 274 273 273 272 272 272 272 271 271 269 267 266 266 266 266 266 266 265 264 264 264 264 263 263 263 263 264 265 267 270 273 276 279 282 284 285 287 289 291 292 293 294
263 263 261 260 260 261 261 263 264 265 265 264 264 265 266 266 266 265 264 263 263 263 262 262 260 259 259 260 260 260 261 262 262 263 263 262 262 262 264 268 272 274 275 274 274 273 272 271 271 270 271 271 268 266 264 263 264 264 265 265 264 263 263 263 262 262 262 262 263 265 268 270 273 276 279 281 283 285 287 289 291 292 293 294 296
261 261 261 260 260 261 262 263 264 263 262 261 260 263 265 266 263 262 261 262 262 263 264 263 262 260 259 258 258 258 258 259 261 262 262 262 263 265 268 271 274 275 275 274 273 272 271 270 269 268 269 269 266 264 264 263 263 263 264 263 263 263 263 262 261 260 261 263 265 267 270 273 276 279 281 284 286 288 291 292 293 294 295 297 298
260 260 260 259 259 259 260 260 260 260 259 260 261 265 269 269 266 262 262 264 264 264 263 262 260 259 258 257 257 258 258 260 262 264 266 267 269 270 272 273 273 274 274 273 271 270 270 270 268 268 268 267 264 263 263 262 262 263 263 262 262 262 261 260 259 260 262 264 266 269 272 275 278 281 284 288 290 293 294 296 296 298 299 300 301
261 261 261 260 259 259 259 259 260 261 262 263 265 268 272 272 267 261 261 263 263 259 256 255 254 255 255 256 257 260 263 266 267 269 270 271 271 271 271 272 272 271 270 269 268 268 269 269 268 267 267 265 262 261 261 261 262 263 262 262 261 261 260 259 260 262 263 265 267 270 272 275 280 285 289 292 294 296 297 298 299 300 301 302 302
263 263 263 263 262 262 261 262 262 263 264 266 268 270 273 273 267 260 258 258 257 255 254 255 256 257 257 257 260 264 267 269 269 269 270 270 270 271 271 270 268 267 267 267 267 267 268 268 267 266 265 263 261 261 261 261 262 263 262 261 260 259 259 260 261 263 265 266 268 269 273 278 284 290 293 295 296 297 297 298 299 300 300 301 301
264 264 264 264 265 265 265 264 264 265 266 268 270 271 273 273 267 261 257 256 255 256 258 259 261 261 261 262 265 268 270 270 270 270 270 270 269 270 269 268 266 266 266 267 267 268 268 267 266 264 262 261 262 262 262 261 261 261 260 259 259 258 259 261 263 265 266 266 268 272 278 285 290 293 295 296 297 297 296 297 298 298 298 299 299
264 264 263 264 265 266 267 267 267 268 268 269 270 271 272 270 264 260 257 256 256 256 257 259 261 262 263 265 266 268 268 268 269 270 271 271 270 269 268 266 265 266 266 266 267 268 268 267 264 261 259 260 261 261 260 260 260 260 260 259 258 259 261 262 264 266 267 269 274 280 286 290 292 294 295 297 297 296 295 295 296 296 296 296 296
263 263 263 263 264 265 266 267 267 268 267 267 267 267 266 263 259 256 255 255 257 257 257 259 260 262 263 265 265 264 263 262 263 264 265 267 268 269 268 266 265 265 265 265 265 266 266 265 263 260 258 259 259 259 259 260 261 262 262 261 260 261 262 264 266 268 271 275 280 285 288 291 293 295 296 297 296 294 293 294 294 293 293 293 294
262 262 261 262 262 263 264 264 264 263 262 261 260 259 257 255 253 252 254 257 261 262 263 263 262 263 264 265 264 263 263 262 262 262 262 263 265 266 267 266 265 265 266 266 265 264 264 262 259 257 257 259 260 260 261 262 262 262 261 260 261 262 263 265 268 272 276 280 283 287 290 293 293 294 295 295 294 291 291 291 292 291 291 292 293
263 262 261 260 260 261 262 261 260 259 257 256 255 252 249 247 247 250 255 260 263 265 266 266 265 264 263 262 262 263 263 264 264 263 263 263 263 263 264 264 264 265 265 265 263 261 259 256 254 255 257 259 258 258 258 258 257 257 257 258 259 262 264 267 271 275 279 283 287 290 292 293 293 293 294 293 291 289 289 289 290 290 290 290 292
263 262 261 260 259 258 258 259 259 258 256 255 253 248 244 245 249 254 257 259 262 264 265 265 265 264 261 260 261 262 263 264 264 264 264 264 264 263 263 263 264 264 262 261 259 257 254 251 252 254 255 253 251 251 251 251 252 254 255 257 260 264 268 272 276 280 284 287 289 290 291 291 291 291 291 290 288 287 287 287 288 288 289 290 293
265 263 262 260 259 258 257 256 257 257 255 253 249 245 244 249 255 258 258 257 258 261 263 262 262 262 261 260 259 260 260 261 262 263 264 264 264 264 264 264 264 263 259 257 256 255 252 249 249 249 249 248 248 247 247 248 250 253 256 260 265 269 273 277 281 284 286 288 288 288 288 289 289 289 288 287 286 285 286 286 287 287 289 291 294
267 265 263 262 260 259 257 256 256 256 254 252 249 246 248 254 259 260 260 258 256 256 259 260 259 260 260 260 259 258 258 258 259 260 261 262 262 263 262 263 263 260 257 255 255 256 254 251 250 249 248 247 247 248 250 253 256 259 263 268 272 275 278 281 283 285 286 286 286 286 286 287 286 286 286 285 285 285 285 285 286 288 291 293 295
267 266 264 263 261 260 258 257 256 256 255 253 251 250 252 256 260 261 261 259 255 253 255 258 258 258 260 260 259 258 257 256 255 256 257 257 257 257 257 256 256 256 254 254 256 257 256 256 256 256 254 251 251 253 259 263 265 268 271 275 277 279 280 282 283 284 285 285 285 284 284 284 284 284 283 284 284 284 284 285 287 290 292 295 297
269 267 265 264 263 261 259 258 257 256 256 255 253 253 255 258 260 261 261 258 254 252 254 257 257 257 258 258 258 257 256 255 253 253 254 254 253 252 252 251 250 250 251 252 254 256 257 256 256 256 255 254 254 257 261 266 269 273 276 278 280 281 282 283 284 284 284 284 283 283 283 283 282 282 283 283 283 283 284 286 289 291 293 296 297
270 269 267 266 265 263 262 260 258 257 257 257 256 256 257 259 260 262 262 259 255 253 254 256 257 256 257 257 255 254 254 254 252 252 252 252 251 251 250 249 248 248 250 252 254 257 258 259 259 259 259 260 261 263 267 270 273 276 279 281 282 283 283 283 283 283 282 282 282 282 282 281 280 281 282 283 283 284 285 288 290 292 295 296 297
271 270 269 268 267 266 265 263 261 259 258 257 258 258 259 259 260 261 262 262 259 256 255 255 256 256 256 256 255 252 251 251 251 251 252 252 252 251 251 251 250 250 252 255 257 260 262 264 265 266 267 269 270 271 274 276 279 281 282 283 283 283 282 281 281 280 280 280 280 280 279 279 280 281 282 282 283 284 287 289 291 293 295 296 296
273 272 271 270 269 267 266 265 264 262 260 259 258 258 258 258 258 258 259 259 260 259 257 255 255 255 255 255 254 252 250 249 249 250 250 251 252 253 254 253 253 254 256 259 263 266 268 268 269 271 272 273 275 276 279 281 282 284 283 283 282 281 280 279 278 277 277 278 278 278 278 279 280 281 282 282 283 285 288 290 292 293 294 294 295
275 274 272 271 269 268 267 265 264 263 262 260 259 258 257 257 257 256 256 256 257 257 257 255 254 254 255 255 253 251 249 248 249 250 251 252 254 256 257 257 258 258 260 264 268 271 272 273 273 273 274 276 277 279 280 282 283 283 282 281 280 278 277 276 275 275 275 275 276 277 277 279 280 281 281 282 284 286 288 290 292 293 293 293 294
277 275 273 271 269 268 267 265 264 262 261 260 259 258 258 257 256 256 256 256 255 255 255 254 253 253 252 251 250 250 250 249 250 252 254 256 258 259 260 261 261 262 263 265 269 271 273 273 274 274 274 276 277 279 281 282 282 281 279 278 276 275 273 273 272 273 273 274 275 276 277 279 280 280 281 282 284 286 289 290 291 291 292 293 294
279 277 275 273 271 269 267 265 264 263 262 261 260 259 258 258 258 257 257 256 255 254 254 253 252 251 250 249 250 251 251 251 252 254 256 258 260 261 262 263 264 264 264 266 268 271 273 274 274 274 274 274 275 277 279 280 279 278 276 273 272 270 270 270 270 271 272 274 275 276 277 278 279 280 281 282 284 287 289 290 290 290 291 292 294
283 282 280 277 274 271 269 267 264 263 262 261 260 260 259 259 258 258 258 257 256 255 254 253 251 250 250 250 251 252 252 253 255 256 257 258 261 262 263 265 266 266 266 267 269 271 272 273 273 272 272 272 274 275 276 276 275 273 270 268 267 267 268 269 270 271 272 274 275 276 277 278 278 279 281 283 285 287 288 289 289 290 292 293 295
286 285 284 280 276 272 270 268 266 263 262 261 260 260 259 259 258 258 258 257 257 256 255 254 252 251 250 251 252 254 255 256 257 257 259 260 261 262 263 264 265 266 267 268 269 271 272 271 270 269 270 270 271 272 272 271 270 268 266 265 265 266 267 268 269 271 272 273 274 275 276 276 277 279 281 283 285 287 288 288 289 291 293 295 296
287 287 285 280 275 273 271 269 266 264 262 261 260 258 257 257 257 257 257 257 257 256 255 254 253 251 251 251 252 253 254 256 257 258 259 260 260 261 261 262 264 265 266 267 268 269 269 269 268 268 268 268 268 267 266 266 265 264 263 264 265 266 267 268 269 270 272 272 273 273 274 276 278 280 282 284 285 286 287 289 290 292 294 296 298
290 289 284 277 274 272 270 268 266 264 262 260 258 256 256 256 256 256 256 255 255 254 253 252 251 250 250 250 250 251 252 254 254 255 255 256 257 258 259 260 262 263 264 264 264 265 265 266 266 267 266 265 264 263 262 262 261 261 261 262 264 265 267 268 269 270 270 270 271 273 274 276 279 280 282 284 285 287 288 290 291 293 295 297 299
298 294 286 276 270 269 268 267 267 265 262 259 256 254 254 254 253 252 251 250 249 249 248 247 247 247 246 246 247 248 248 248 248 248 249 251 253 255 256 258 259 259 260 260 260 261 261 262 262 262 261 260 259 259 258 258 258 259 260 262 264 265 266 267 267 268 268 269 271 273 275 277 279 281 283 285 286 288 290 291 293 295 296 298 300
307 305 295 276 258 253 259 263 267 267 263 261 260 256 254 252 249 247 245 243 242 241 240 240 240 240 240 240 240 240 239 239 240 241 243 246 248 251 252 253 253 253 254 255 255 256 256 257 257 257 257 256 256 256 255 256 257 259 260 262 263 263 264 265 265 266 268 270 272 275 277 279 280 282 284 286 288 290 291 293 294 296 297 299 301
309 312 303 270 231 226 241 248 249 252 253 255 257 255 252 251 248 243 239 235 232 229 227 226 227 227 227 228 229 229 230 232 234 237 241 245 247 248 247 246 245 246 248 250 251 251 251 251 253 254 255 255 254 254 254 255 257 258 259 260 261 262 263 264 265 267 269 272 274 276 278 280 282 284 286 289 290 292 293 294 296 297 298 300 302
307 310 305 272 229 221 229 233 227 225 233 241 245 244 244 244 242 237 231 226 221 218 217 217 218 219 221 223 226 228 231 233 234 237 241 243 243 241 240 238 238 240 244 247 249 249 248 248 250 252 253 254 253 253 253 254 255 256 257 258 259 260 262 264 267 269 272 274 276 278 280 282 284 286 288 290 291 293 294 296 297 298 300 301 303
316 311 305 279 239 226 226 227 221 217 225 236 242 243 243 244 242 238 234 229 226 223 222 223 223 223 224 226 230 234 235 233 230 230 233 234 234 233 233 235 238 242 245 246 247 248 250 251 250 250 251 251 251 250 251 251 252 253 255 257 259 261 264 266 269 272 274 276 278 280 282 284 286 288 290 291 293 294 296 297 298 299 301 302 304
335 327 318 293 253 234 229 227 223 222 229 241 247 250 252 251 249 247 245 240 236 232 230 229 230 230 230 231 232 232 230 227 226 229 235 240 241 241 241 242 245 247 248 247 247 248 251 253 252 249 248 247 247 247 248 249 251 253 255 258 261 264 266 269 272 274 276 279 281 283 285 286 288 290 291 293 294 296 297 298 299 300 302 304 305
348 342 339 325 279 242 232 231 231 234 240 246 249 252 256 258 258 256 251 245 240 237 236 236 237 236 236 235 233 231 230 231 233 237 241 244 247 247 247 247 248 248 248 247 246 247 250 252 251 248 245 244 244 246 247 249 252 255 258 261 264 267 269 272 275 277 279 281 283 285 286 288 290 291 293 294 295 297 298 299 301 302 304 304 305
360 346 333 324 300 259 242 238 240 244 249 253 254 256 260 264 265 258 250 245 242 240 239 240 240 239 237 236 234 235 236 238 240 241 243 245 247 247 248 249 250 250 248 247 246 247 247 247 245 243 242 243 244 247 250 253 256 259 261 264 267 270 272 275 277 279 281 283 284 286 288 290 291 293 294 295 297 298 299 301 302 304 304 304 304
Height
5642 5639 5639 5641 5644 5646 5646 5646 5646 5646 5646 5646 5646 5646 5646 5645 5645 5644 5644 5645 5646 5646 5647 5648 5647 5647 5648 5649 5650 5651 5651 5651 5651 5651 5651 5650 5649 5649 5648 5648 5648 5647 5647 5647 5646 5646 5647 5647 5647 5646 5647 5646 5646 5646 5646 5646 5646 5645 5645 5644 5643 5643 5642 5641 5640 5636 5633 5635 5635 5633 5632 5631 5627 5623 5623 5622 5620 5619 5618 5619 5620 5619 5618 5617 5617
5633 5631 5632 5634 5636 5637 5638 5638 5638 5638 5638 5638 5638 5638 5637 5637 5635 5635 5636 5636 5637 5637 5637 5638 5638 5638 5639 5641 5642 5642 5642 5642 5642 5642 5642 5642 5641 5640 5639 5639 5639 5639 5639 5639 5638 5638 5638 5639 5639 5638 5639 5638 5638 5638 5637 5637 5637 5636 5636 5635 5634 5634 5633 5632 5632 5630 5626 5624 5626 5626 5624 5623 5621 5618 5617 5617 5615 5613 5611 5612 5612 5611 5610 5609 5609
5623 5624 5626 5628 5630 5631 5631 5630 5629 5629 5629 5629 5629 5629 5628 5627 5626 5626 5627 5627 5627 5628 5629 5629 5629 5629 5631 5632 5633 5633 5633 5633 5633 5634 5634 5633 5632 5631 5631 5631 5631 5631 5631 5631 5631 5630 5630 5631 5630 5630 5630 5630 5629 5629 5629 5628 5628 5627 5626 5626 5624 5624 5624 5624 5623 5623 5620 5617 5616 5617 5617 5615 5614 5611 5610 5610 5610 5608 5607 5605 5605 5604 5603 5602 5602
5614 5614 5616 5619 5621 5622 5623 5621 5619 5619 5619 5619 5620 5620 5619 5619 5619 5619 5619 5619 5620 5620 5620 5620 5620 5621 5622 5623 5624 5624 5624 5624 5624 5625 5625 5624 5624 5623 5623 5623 5622 5623 5623 5623 5623 5623 5623 5623 5622 5621 5621 5621 5620 5620 5619 5619 5618 5618 5617 5616 5615 5614 5615 5615 5614 5615 5614 5610 5607 5607 5608 5607 5605 5603 5602 5602 5603 5603 5602 5600 5599 5598 5596 5595 5594
5606 5605 5605 5607 5609 5611 5612 5611 5610 5610 5609 5609 5610 5610 5610 5611 5611 5611 5611 5611 5612 5612 5611 5612 5612 5612 5613 5614 5614 5614 5614 5614 5614 5615 5616 5615 5615 5615 5615 5614 5614 5614 5615 5615 5616 5616 5615 5614 5613 5612 5612 5612 5611 5610 5610 5609 5609 5608 5607 5606 5606 5605 5605 5605 5605 5605 5605 5603 5600 5599 5599 5598 5597 5595 5595 5594 5594 5595 5594 5594 5592 5591 5590 5589 5587
5598 5597 5596 5597 5598 5600 5601 5601 5600 5600 5600 5600 5601 5600 5601 5602 5602 5602 5602 5602 5603 5603 5603 5603 5603 5604 5604 5604 5604 5604 5604 5604 5605 5606 5606 5606 5606 5606 5606 5606 5605 5605 5606 5606 5607 5607 5606 5605 5604 5603 5603 5602 5602 5601 5600 5600 5599 5598 5597 5597 5596 5596 5595 5595 5595 5595 5595 5595 5593 5591 5590 5589 5588 5587 5586 5586 5586 5587 5586 5586 5585 5583 5582 5582 5581
5589 5589 5588 5588 5588 5588 5589 5590 5591 5592 5592 5592 5591 5591 5592 5592 5593 5593 5593 5593 5594 5594 5594 5594 5594 5594 5595 5594 5595 5595 5594 5594 5595 5596 5597 5597 5597 5597 5597 5596 5596 5596 5596 5597 5597 5597 5597 5595 5594 5594 5593 5593 5592 5592 5591 5590 5589 5588 5588 5587 5587 5586 5585 5585 5585 5585 5586 5586 5585 5584 5582 5580 5579 5579 5578 5577 5578 5578 5578 5578 5577 5575 5574 5574 5574
5578 5578 5578 5579 5579 5579 5579 5579 5580 5581 5582 5582 5582 5582 5582 5582 5582 5582 5583 5584 5584 5584 5584 5584 5584 5584 5584 5585 5585 5585 5585 5585 5586 5586 5586 5586 5586 5586 5586 5586 5585 5586 5586 5586 5587 5587 5587 5585 5584 5584 5583 5582 5582 5582 5581 5581 5580 5579 5579 5578 5578 5577 5576 5575 5575 5575 5576 5576 5575 5574 5573 5572 5570 5570 5570 5569 5569 5569 5568 5568 5569 5568 5567 5567 5566
5565 5566 5566 5567 5568 5569 5569 5568 5568 5569 5570 5571 5571 5571 5571 5571 5571 5571 5572 5573 5573 5573 5574 5574 5574 5574 5574 5574 5574 5574 5575 5576 5576 5576 5576 5575 5575 5574 5574 5575 5575 5575 5576 5576 5577 5577 5576 5575 5574 5573 5572 5572 5572 5571 5571 5571 5570 5570 5570 5569 5568 5568 5566 5565 5565 5566 5567 5567 5565 5564 5564 5563 5561 5561 5560 5560 5560 5560 5559 5559 5560 5560 5560 5559 5558
5551 5552 5553 5554 5554 5555 5556 5556 5557 5557 5558 5560 5561 5561 5560 5561 5560 5560 5561 5561 5562 5563 5563 5564 5564 5564 5564 5564 5563 5564 5565 5566 5566 5565 5565 5564 5563 5563 5563 5564 5565 5565 5565 5566 5566 5566 5566 5565 5564 5563 5562 5561 5561 5561 5561 5561 5560 5560 5560 5559 5559 5558 5557 5556 5556 5557 5557 5556 5555 5554 5554 5553 5552 5551 5551 5551 5550 5550 5550 5551 5551 5551 5551 5551 5550
5538 5539 5539 5540 5541 5542 5543 5544 5545 5545 5546 5547 5549 5550 5549 5550 5551 5551 5551 5551 5551 5551 5551 5552 5553 5553 5553 5553 5553 5554 5556 5556 5556 5555 5554 5554 5553 5553 5553 5554 5554 5555 5555 5556 5556 5556 5556 5555 5554 5553 5552 5551 5551 5552 5552 5552 5551 5550 5550 5550 5549 5548 5547 5547 5547 5547 5547 5547 5546 5545 5544 5544 5542 5541 5541 5541 5541 5541 5541 5541 5542 5542 5541 5541 5542
5527 5527 5527 5527 5528 5529 5530 5532 5533 5533 5534 5535 5536 5537 5538 5539 5540 5541 5541 5541 5540 5539 5540 5541 5541 5541 5541 5542 5542 5544 5546 5546 5545 5544 5543 5543 5543 5542 5542 5543 5544 5544 5545 5546 5546 5546 5546 5545 5543 5543 5542 5542 5542 5542 5543 5543 5542 5541 5541 5540 5540 5538 5538 5538 5538 5538 5538 5537 5537 5535 5534 5534 5533 5532 5532 5532 5532 5532 5532 5532 5532 5532 5532 5531 5531
5514 5515 5516 5515 5516 5517 5518 5520 5521 5521 5522 5523 5524 5525 5525 5526 5528 5528 5529 5529 5528 5529 5529 5529 5529 5530 5529 5530 5531 5533 5535 5535 5534 5533 5533 5532 5532 5531 5531 5532 5533 5534 5534 5535 5535 5535 5535 5534 5533 5533 5533 5533 5533 5533 5533 5533 5533 5532 5531 5531 5530 5529 5529 5529 5529 5529 5529 5528 5527 5525 5525 5525 5525 5523 5523 5523 5523 5522 5522 5522 5521 5521 5521 5521 5520
5502 5502 5503 5504 5504 5505 5506 5507 5508 5509 5510 5511 5511 5512 5512 5513 5514 5515 5516 5516 5517 5518 5518 5517 5518 5518 5518 5518 5519 5521 5523 5523 5523 5522 5522 5522 5521 5520 5520 5521 5522 5523 5524 5524 5524 5525 5525 5524 5524 5524 5524 5524 5524 5524 5524 5523 5523 5522 5522 5522 5521 5520 5519 5520 5520 5520 5519 5519 5518 5516 5515 5516 5515 5514 5513 5512 5512 5512 5512 5512 5511 5510 5511 5510 5508
5489 5489 5491 5492 5492 5492 5493 5495 5496 5496 5497 5498 5498 5499 5499 5500 5501 5502 5503 5504 5505 5506 5506 5506 5506 5506 5506 5507 5508 5510 5511 5511 5511 5511 5511 5510 5510 5509 5509 5510 5512 5512 5513 5514 5514 5515 5515 5515 5514 5514 5514 5514 5514 5514 5513 5513 5513 5513 5513 5512 5511 5510 5511 5511 5511 5511 5510 5510 5509 5507 5506 5506 5505 5505 5503 5502 5502 5502 5502 5501 5499 5498 5499 5498 5495
5473 5474 5476 5478 5479 5480 5481 5482 5483 5484 5484 5485 5486 5486 5487 5488 5488 5488 5490 5491 5492 5493 5494 5494 5494 5494 5495 5495 5497 5498 5499 5499 5499 5500 5499 5499 5499 5498 5499 5500 5501 5502 5502 5503 5504 5505 5505 5505 5504 5504 5504 5504 5505 5504 5503 5503 5503 5503 5503 5503 5502 5501 5501 5501 5502 5501 5501 5500 5500 5498 5496 5496 5495 5494 5493 5492 5491 5491 5491 5489 5486 5485 5485 5484 5482
5458 5459 5461 5462 5464 5465 5466 5467 5469 5470 5471 5472 5473 5474 5475 5475 5476 5476 5477 5478 5479 5480 5481 5481 5482 5482 5483 5484 5485 5486 5487 5487 5488 5488 5488 5488 5487 5488 5489 5489 5490 5491 5492 5492 5493 5494 5495 5495 5494 5494 5494 5494 5494 5493 5492 5493 5493 5494 5493 5493 5493 5492 5492 5492 5492 5492 5491 5491 5490 5488 5487 5486 5485 5484 5482 5481 5479 5479 5479 5477 5474 5472 5471 5469 5468
5444 5445 5446 5447 5447 5448 5448 5449 5452 5454 5456 5457 5459 5460 5462 5462 5463 5464 5464 5465 5466 5466 5467 5468 5469 5471 5471 5472 5473 5473 5475 5476 5476 5476 5477 5477 5476 5478 5479 5479 5479 5480 5481 5482 5483 5484 5485 5485 5484 5484 5484 5483 5482 5481 5482 5483 5484 5484 5483 5483 5484 5483 5482 5483 5483 5482 5482 5481 5479 5478 5477 5476 5475 5473 5471 5469 5467 5466 5466 5464 5462 5460 5458 5455 5453
5428 5429 5431 5432 5432 5433 5432 5433 5435 5437 5440 5442 5444 5446 5448 5449 5450 5451 5451 5451 5452 5453 5454 5455 5457 5458 5459 5460 5461 5461 5463 5465 5465 5465 5466 5465 5465 5468 5469 5468 5469 5470 5470 5470 5471 5473 5474 5475 5474 5474 5474 5472 5471 5472 5473 5474 5474 5473 5473 5474 5474 5473 5473 5473 5473 5472 5471 5470 5469 5468 5466 5465 5464 5463 5460 5458 5456 5454 5453 5451 5449 5447 5445 5443 5439
5414 5414 5415 5417 5418 5418 5418 5418 5420 5422 5424 5426 5429 5431 5433 5435 5437 5438 5438 5439 5440 5441 5441 5443 5444 5446 5446 5448 5449 5449 5451 5453 5453 5453 5454 5453 5454 5458 5459 5458 5458 5459 5459 5460 5461 5462 5463 5464 5464 5463 5462 5461 5461 5463 5464 5464 5463 5463 5464 5465 5464 5464 5464 5464 5463 5462 5461 5459 5458 5457 5455 5454 5453 5451 5450 5448 5445 5442 5440 5438 5436 5434 5432 5431 5427
5400 5401 5402 5403 5404 5404 5405 5405 5406 5408 5410 5412 5414 5417 5420 5422 5424 5425 5426 5427 5428 5429 5430 5431 5432 5433 5434 5435 5436 5437 5439 5440 5441 5441 5442 5441 5443 5447 5449 5447 5447 5448 5448 5449 5450 5451 5452 5453 5453 5452 5451 5450 5452 5452 5452 5453 5453 5453 5454 5455 5454 5454 5454 5454 5452 5451 5451 5449 5447 5447 5445 5443 5442 5441 5439 5437 5434 5431 5428 5425 5423 5421 5419 5417 5414
5386 5388 5389 5390 5390 5391 5392 5392 5393 5394 5396 5398 5400 5403 5406 5408 5411 5413 5415 5416 5417 5418 5419 5419 5420 5421 5422 5423 5424 5425 5427 5429 5429 5429 5430 5429 5431 5436 5438 5436 5436 5437 5437 5438 5440 5440 5441 5442 5442 5441 5440 5440 5441 5441 5441 5442 5444 5445 5444 5444 5443 5444 5444 5443 5442 5441 5441 5440 5438 5437 5435 5433 5432 5431 5429 5427 5424 5420 5417 5413 5411 5408 5405 5403 5400
5372 5375 5376 5377 5377 5378 5379 5380 5380 5382 5383 5384 5385 5389 5392 5394 5397 5400 5402 5404 5405 5406 5406 5407 5407 5409 5410 5411 5413 5414 5415 5416 5417 5417 5417 5418 5419 5423 5427 5426 5425 5426 5428 5428 5429 5430 5431 5431 5430 5429 5429 5430 5430 5430 5430 5432 5435 5436 5434 5432 5433 5435 5434 5433 5432 5431 5431 5431 5429 5427 5425 5424 5423 5421 5418 5416 5412 5409 5405 5402 5399 5396 5392 5390 5387
5357 5360 5362 5363 5364 5364 5365 5366 5367 5368 5369 5370 5371 5375 5378 5380 5383 5387 5389 5390 5392 5393 5394 5394 5395 5397 5399 5400 5402 5403 5403 5404 5405 5405 5405 5407 5408 5411 5416 5416 5415 5416 5418 5418 5419 5420 5420 5419 5417 5417 5418 5418 5418 5419 5420 5421 5423 5424 5423 5422 5424 5425 5423 5422 5422 5422 5421 5420 5419 5418 5416 5415 5414 5410 5407 5405 5400 5396 5393 5390 5387 5384 5380 5379 5377
5342 5344 5346 5348 5349 5350 5351 5353 5354 5355 5355 5357 5358 5362 5365 5367 5370 5373 5375 5376 5379 5381 5381 5382 5383 5385 5387 5389 5391 5392 5392 5393 5394 5394 5395 5396 5397 5399 5404 5407 5406 5406 5408 5409 5410 5410 5409 5408 5406 5406 5407 5407 5407 5408 5410 5410 5411 5413 5413 5414 5414 5414 5413 5413 5412 5412 5411 5410 5409 5408 5405 5404 5402 5399 5395 5393 5388 5384 5382 5379 5376 5373 5369 5368 5367
5326 5328 5330 5331 5333 5334 5335 5338 5340 5341 5342 5344 5346 5349 5352 5354 5357 5360 5362 5363 5365 5367 5368 5370 5371 5373 5375 5378 5379 5380 5381 5382 5384 5385 5386 5387 5387 5387 5391 5396 5397 5396 5397 5399 5399 5398 5397 5397 5396 5395 5395 5396 5397 5398 5400 5401 5402 5403 5404 5404 5404 5403 5403 5403 5403 5402 5401 5401 5399 5397 5394 5392 5390 5386 5383 5380 5376 5372 5370 5368 5365 5362 5358 5357 5357
5307 5310 5313 5314 5315 5317 5318 5321 5325 5327 5328 5330 5333 5336 5339 5341 5344 5347 5349 5351 5352 5353 5355 5357 5359 5362 5364 5365 5366 5368 5370 5371 5373 5375 5376 5376 5376 5376 5378 5383 5386 5386 5386 5386 5386 5385 5386 5386 5385 5384 5384 5386 5388 5390 5391 5391 5392 5392 5393 5393 5393 5392 5392 5392 5392 5391 5391 5390 5388 5385 5383 5379 5376 5373 5370 5368 5364 5361 5358 5357 5355 5352 5348 5347 5347
5289 5291 5295 5297 5298 5300 5300 5302 5307 5311 5314 5315 5317 5321 5325 5327 5329 5333 5336 5337 5338 5340 5342 5345 5348 5350 5352 5353 5355 5357 5359 5361 5362 5362 5362 5363 5363 5364 5367 5372 5375 5375 5375 5375 5374 5374 5375 5375 5374 5374 5376 5378 5380 5381 5381 5381 5380 5380 5380 5381 5381 5381 5381 5381 5381 5381 5380 5379 5376 5373 5370 5367 5364 5361 5359 5356 5353 5349 5347 5345 5343 5341 5338 5335 5335
5271 5273 5276 5278 5280 5282 5283 5285 5288 5292 5296 5299 5301 5305 5310 5311 5314 5319 5323 5324 5325 5327 5329 5333 5336 5338 5340 5342 5345 5347 5349 5351 5350 5349 5350 5352 5353 5354 5357 5360 5363 5365 5365 5364 5363 5363 5365 5366 5365 5365 5366 5368 5369 5369 5368 5368 5368 5368 5369 5369 5369 5369 5370 5370 5370 5369 5368 5366 5363 5361 5358 5356 5353 5350 5348 5345 5342 5338 5335 5333 5331 5330 5327 5325 5323
5253 5256 5259 5260 5263 5264 5266 5269 5272 5274 5277 5281 5285 5289 5293 5295 5298 5303 5308 5311 5312 5313 5316 5321 5324 5325 5328 5332 5335 5336 5338 5340 5339 5339 5341 5343 5342 5343 5345 5348 5351 5354 5354 5354 5354 5354 5356 5356 5356 5356 5356 5356 5357 5357 5356 5356 5357 5357 5358 5358 5358 5358 5358 5358 5357 5357 5355 5353 5351 5349 5347 5345 5342 5339 5337 5335 5332 5328 5324 5322 5320 5318 5316 5314 5312
5235 5240 5243 5244 5245 5246 5247 5252 5255 5257 5260 5264 5267 5271 5276 5279 5282 5287 5292 5296 5299 5301 5303 5307 5311 5314 5317 5320 5323 5325 5327 5329 5330 5331 5332 5332 5332 5333 5335 5337 5340 5342 5343 5344 5344 5344 5346 5347 5347 5347 5346 5346 5347 5347 5347 5347 5348 5348 5348 5348 5347 5346 5346 5346 5346 5345 5344 5342 5340 5338 5336 5334 5332 5329 5327 5324 5322 5318 5314 5311 5309 5307 5305 5303 5300
5218 5223 5227 5227 5228 5229 5230 5234 5238 5240 5243 5247 5250 5254 5258 5262 5267 5272 5276 5280 5283 5287 5290 5293 5297 5301 5305 5309 5311 5314 5316 5318 5319 5321 5321 5321 5321 5322 5323 5326 5329 5331 5333 5334 5334 5334 5335 5337 5338 5338 5337 5337 5338 5338 5338 5338 5338 5338 5338 5337 5336 5336 5335 5335 5335 5333 5331 5330 5328 5326 5325 5323 5321 5319 5317 5315 5312 5309 5305 5301 5298 5296 5294 5292 5289
5201 5205 5210 5211 5211 5211 5214 5218 5221 5224 5227 5231 5234 5237 5240 5243 5249 5255 5259 5263 5268 5272 5276 5280 5284 5288 5293 5297 5300 5302 5304 5306 5308 5310 5310 5309 5309 5310 5312 5316 5319 5321 5323 5324 5324 5325 5326 5327 5328 5328 5328 5328 5328 5327 5327 5327 5327 5327 5326 5325 5325 5325 5325 5324 5323 5321 5320 5318 5317 5315 5313 5312 5311 5309 5307 5305 5301 5299 5296 5292 5289 5286 5283 5280 5279
5186 5188 5192 5194 5194 5195 5198 5202 5205 5208 5210 5213 5217 5220 5223 5226 5229 5234 5239 5245 5251 5257 5261 5265 5269 5273 5279 5283 5287 5291 5293 5294 5296 5298 5298 5297 5298 5298 5300 5304 5309 5312 5314 5316 5316 5316 5317 5317 5317 5318 5318 5317 5317 5316 5316 5317 5316 5315 5315 5314 5314 5314 5313 5312 5311 5310 5309 5307 5305 5304 5302 5301 5300 5299 5297 5295 5292 5289 5287 5283 5280 5276 5272 5269 5268
5172 5174 5177 5179 5179 5181 5184 5187 5189 5192 5195 5198 5201 5204 5207 5210 5212 5215 5219 5225 5232 5239 5245 5250 5254 5258 5263 5268 5273 5278 5281 5282 5284 5285 5285 5285 5285 5285 5287 5292 5299 5302 5305 5307 5307 5306 5306 5306 5306 5306 5306 5306 5306 5306 5306 5305 5305 5304 5303 5303 5303 5302 5302 5301 5300 5299 5298 5296 5294 5293 5292 5291 5290 5289 5287 5285 5282 5280 5278 5275 5270 5267 5263 5259 5257
5161 5162 5164 5165 5165 5166 5170 5172 5174 5176 5180 5183 5186 5188 5191 5194 5197 5201 5204 5209 5214 5221 5227 5233 5238 5242 5247 5253 5259 5264 5268 5270 5271 5271 5271 5272 5271 5271 5275 5282 5288 5291 5294 5296 5295 5293 5293 5294 5294 5294 5294 5294 5294 5294 5294 5294 5293 5293 5292 5292 5292 5291 5291 5290 5289 5288 5287 5285 5284 5284 5283 5281 5280 5279 5277 5275 5273 5270 5268 5266 5262 5258 5254 5250 5247
5150 5151 5151 5151 5151 5152 5155 5158 5160 5162 5164 5168 5171 5173 5176 5180 5183 5186 5190 5195 5199 5205 5210 5215 5221 5226 5231 5238 5244 5249 5253 5256 5256 5255 5257 5259 5259 5260 5265 5271 5275 5278 5282 5283 5281 5279 5279 5281 5282 5282 5283 5283 5283 5283 5283 5283 5282 5282 5282 5281 5281 5280 5280 5279 5279 5278 5277 5276 5275 5274 5273 5271 5270 5269 5267 5265 5263 5261 5258 5255 5252 5249 5246 5241 5237
5140 5140 5139 5139 5139 5140 5143 5145 5147 5148 5151 5154 5157 5160 5163 5167 5170 5173 5177 5181 5185 5189 5194 5199 5205 5211 5217 5223 5228 5231 5236 5240 5241 5242 5244 5247 5249 5250 5255 5259 5261 5265 5269 5269 5267 5267 5268 5269 5270 5271 5272 5273 5273 5272 5272 5272 5271 5271 5270 5269 5269 5269 5269 5269 5269 5268 5267 5266 5265 5264 5263 5261 5260 5259 5258 5256 5254 5252 5249 5246 5243 5240 5238 5233 5228
5130 5130 5129 5129 5129 5130 5132 5133 5135 5137 5139 5142 5145 5148 5151 5155 5159 5161 5164 5167 5171 5175 5179 5184 5190 5197 5203 5207 5211 5216 5220 5225 5228 5230 5232 5234 5236 5239 5243 5246 5249 5252 5255 5255 5254 5255 5257 5258 5259 5260 5260 5261 5261 5261 5262 5262 5261 5260 5260 5259 5258 5259 5259 5259 5259 5259 5257 5256 5255 5254 5253 5252 5251 5249 5248 5246 5244 5242 5240 5237 5234 5231 5228 5225 5221
5122 5121 5121 5120 5120 5120 5121 5123 5125 5127 5128 5131 5134 5137 5140 5144 5148 5150 5153 5155 5159 5163 5167 5170 5176 5182 5187 5191 5196 5201 5206 5211 5214 5216 5218 5221 5225 5229 5232 5235 5237 5239 5240 5241 5242 5244 5246 5247 5248 5248 5248 5249 5249 5250 5250 5250 5250 5250 5249 5249 5249 5249 5249 5249 5249 5249 5248 5247 5246 5245 5244 5243 5242 5240 5239 5236 5235 5233 5231 5228 5225 5221 5218 5215 5212
5115 5114 5114 5113 5112 5112 5113 5114 5116 5118 5119 5122 5125 5128 5131 5134 5137 5139 5142 5145 5149 5152 5155 5159 5163 5168 5172 5177 5182 5187 5192 5196 5199 5203 5207 5211 5215 5217 5220 5223 5224 5225 5227 5229 5231 5232 5234 5235 5236 5236 5237 5237 5237 5238 5239 5239 5239 5239 5239 5239 5239 5240 5240 5240 5240 5239 5239 5238 5237 5236 5236 5234 5233 5232 5230 5228 5226 5224 5222 5219 5216 5212 5209 5206 5202
5108 5108 5107 5106 5106 5106 5107 5108 5109 5111 5112 5115 5118 5120 5123 5125 5127 5130 5134 5137 5140 5143 5146 5149 5153 5156 5161 5166 5170 5174 5179 5183 5188 5192 5196 5200 5202 5205 5208 5210 5212 5214 5216 5218 5220 5221 5222 5223 5224 5224 5225 5226 5227 5228 5228 5228 5229 5230 5230 5230 5230 5230 5231 5231 5231 5230 5230 5229 5228 5228 5227 5226 5225 5223 5221 5219 5217 5216 5213 5210 5208 5204 5200 5197 5193
5102 5102 5101 5101 5101 5102 5102 5103 5105 5106 5108 5110 5112 5114 5116 5119 5121 5124 5127 5130 5132 5135 5138 5141 5144 5148 5152 5156 5159 5164 5169 5174 5178 5182 5185 5187 5190 5193 5196 5198 5201 5203 5205 5207 5208 5209 5211 5212 5213 5214 5216 5217 5218 5219 5219 5219 5220 5221 5222 5222 5222 5222 5222 5222 5223 5222 5222 5221 5221 5220 5219 5218 5216 5215 5213 5211 5209 5207 5205 5201 5199 5195 5191 5188 5185
5098 5097 5097 5097 5097 5098 5099 5101 5102 5103 5105 5107 5108 5110 5112 5114 5117 5119 5121 5124 5126 5129 5132 5135 5138 5142 5145 5148 5152 5157 5162 5165 5168 5171 5174 5176 5179 5181 5184 5187 5190 5192 5194 5196 5197 5199 5200 5202 5203 5205 5208 5209 5211 5211 5211 5211 5212 5213 5213 5213 5213 5213 5214 5214 5214 5215 5214 5214 5213 5212 5211 5210 5208 5206 5205 5203 5201 5199 5196 5193 5189 5187 5183 5180 5176
5095 5094 5094 5094 5095 5097 5098 5100 5101 5102 5104 5105 5107 5108 5110 5112 5114 5116 5118 5120 5123 5125 5128 5131 5134 5137 5141 5144 5148 5151 5155 5157 5159 5162 5165 5167 5170 5172 5175 5178 5181 5183 5185 5187 5188 5189 5191 5193 5195 5199 5201 5203 5204 5204 5203 5203 5204 5205 5205 5205 5205 5206 5206 5206 5207 5207 5207 5207 5207 5205 5203 5202 5201 5199 5197 5195 5192 5190 5187 5184 5181 5178 5175 5171 5168
5093 5093 5092 5092 5094 5096 5098 5099 5101 5102 5104 5105 5106 5108 5110 5111 5113 5115 5116 5119 5121 5123 5126 5129 5132 5135 5138 5141 5144 5146 5149 5151 5154 5156 5158 5160 5163 5165 5168 5171 5173 5175 5178 5179 5180 5182 5184 5186 5190 5193 5195 5196 5197 5196 5196 5196 5197 5197 5198 5198 5198 5199 5199 5200 5200 5201 5201 5200 5200 5198 5196 5195 5193 5191 5189 5187 5184 5181 5179 5176 5172 5169 5166 5162 5159
5092 5092 5091 5092 5093 5095 5097 5099 5100 5102 5103 5105 5106 5108 5109 5111 5112 5114 5116 5118 5120 5122 5125 5127 5130 5132 5135 5138 5140 5142 5144 5146 5149 5151 5153 5155 5157 5160 5162 5165 5167 5170 5172 5174 5176 5178 5180 5182 5185 5187 5188 5189 5189 5189 5189 5189 5190 5190 5191 5191 5192 5193 5193 5194 5194 5194 5194 5194 5192 5191 5189 5187 5185 5183 5181 5179 5176 5174 5171 5168 5164 5161 5157 5153 5149
5091 5091 5091 5092 5093 5095 5097 5098 5100 5102 5103 5105 5106 5108 5109 5111 5112 5114 5116 5117 5119 5121 5123 5126 5128 5130 5133 5135 5137 5139 5141 5143 5145 5147 5150 5152 5154 5156 5159 5161 5163 5166 5168 5170 5172 5174 5176 5177 5178 5180 5180 5181 5182 5182 5182 5183 5184 5184 5185 5186 5186 5187 5188 5188 5188 5188 5187 5186 5185 5183 5182 5180 5178 5176 5174 5171 5168 5165 5162 5159 5155 5152 5147 5144 5139
5091 5091 5091 5092 5093 5095 5096 5098 5100 5102 5103 5104 5106 5107 5109 5110 5111 5113 5115 5116 5118 5120 5122 5124 5126 5128 5130 5132 5134 5136 5138 5140 5142 5145 5147 5150 5152 5154 5156 5158 5160 5162 5164 5166 5167 5169 5170 5171 5172 5173 5174 5175 5175 5176 5177 5177 5178 5179 5180 5180 5181 5182 5182 5182 5181 5181 5180 5179 5178 5176 5174 5172 5170 5168 5166 5163 5160 5157 5153 5149 5146 5142 5138 5134 5129
5093 5092 5093 5093 5093 5095 5097 5098 5100 5101 5103 5104 5105 5106 5108 5109 5110 5112 5113 5114 5116 5118 5120 5121 5123 5125 5127 5129 5132 5134 5136 5138 5140 5142 5144 5147 5149 5151 5153 5154 5156 5158 5159 5160 5162 5163 5164 5165 5166 5167 5168 5169 5170 5171 5172 5172 5173 5174 5175 5176 5176 5176 5176 5175 5174 5174 5173 5172 5171 5169 5167 5165 5162 5160 5157 5154 5151 5148 5144 5140 5136 5132 5128 5123 5119
5094 5094 5094 5094 5095 5096 5097 5099 5100 5101 5102 5103 5104 5105 5106 5108 5109 5110 5112 5113 5114 5116 5118 5119 5121 5123 5125 5127 5129 5131 5133 5135 5137 5139 5141 5143 5145 5147 5148 5150 5151 5153 5154 5155 5156 5158 5158 5160 5161 5162 5163 5164 5165 5166 5167 5168 5169 5169 5170 5170 5170 5170 5170 5169 5168 5167 5166 5165 5163 5161 5159 5157 5154 5152 5149 5146 5142 5139 5135 5131 5126 5122 5118 5114 5110